TimeMDT,TemperatureF,Dew PointF,Humidity,Sea Level PressureIn,VisibilityMPH,Wind Direction,Wind SpeedMPH,Gust SpeedMPH,PrecipitationIn,Events,Conditions,WindDirDegrees,DateUTC
12:15 AM,55.4,50.0,82,30.26,10.0,Calm,Calm,-,N/A,,Clear,0,2013-08-27 06:15:00
12:35 AM,55.4,48.2,77,30.26,10.0,East,3.5,-,N/A,,Clear,90,2013-08-27 06:35:00
12:55 AM,53.6,48.2,82,30.27,10.0,SE,4.6,-,N/A,,Clear,130,2013-08-27 06:55:00
1:15 AM,51.8,48.2,88,30.27,10.0,Calm,Calm,-,N/A,,Clear,0,2013-08-27 07:15:00
1:35 AM,53.6,48.2,82,30.27,10.0,NW,4.6,-,N/A,,Clear,310,2013-08-27 07:35:00
1:55 AM,51.8,46.4,82,30.27,10.0,Calm,Calm,-,N/A,,Clear,0,2013-08-27 07:55:00
2:15 AM,51.8,48.2,88,30.27,10.0,Calm,Calm,-,N/A,,Clear,0,2013-08-27 08:15:00
2:35 AM,51.8,48.2,88,30.28,10.0,Calm,Calm,-,N/A,,Partly Cloudy,0,2013-08-27 08:35:00
2:55 AM,51.8,46.4,82,30.27,10.0,North,3.5,-,N/A,,Partly Cloudy,360,2013-08-27 08:55:00
3:15 AM,50.0,48.2,94,30.27,10.0,North,5.8,-,N/A,,Mostly Cloudy,360,2013-08-27 09:15:00
3:35 AM,51.8,48.2,88,30.27,10.0,North,4.6,-,N/A,,Partly Cloudy,360,2013-08-27 09:35:00
3:55 AM,51.8,48.2,88,30.28,10.0,North,4.6,-,N/A,,Mostly Cloudy,360,2013-08-27 09:55:00
4:15 AM,51.8,48.2,88,30.27,10.0,NNW,5.8,-,N/A,,Overcast,330,2013-08-27 10:15:00
4:35 AM,51.8,48.2,88,30.27,10.0,NNE,3.5,-,N/A,,Overcast,20,2013-08-27 10:35:00
4:55 AM,50.0,46.4,87,30.27,10.0,North,5.8,-,N/A,,Scattered Clouds,350,2013-08-27 10:55:00
5:15 AM,48.2,46.4,93,30.27,10.0,NNW,5.8,-,N/A,,Clear,340,2013-08-27 11:15:00
5:55 AM,48.2,46.4,93,30.28,10.0,NE,3.5,-,N/A,,Clear,50,2013-08-27 11:55:00
6:15 AM,48.2,46.4,93,30.28,10.0,North,5.8,-,N/A,,Clear,10,2013-08-27 12:15:00
6:35 AM,48.2,46.4,93,30.28,10.0,Calm,Calm,-,N/A,,Clear,0,2013-08-27 12:35:00
6:51 AM,48.2,46.4,93,30.30,30.0,NNW,6.9,-,N/A,,Clear,340,2013-08-27 12:51:00
7:51 AM,51.8,48.2,88,30.31,10.0,Calm,Calm,-,N/A,,Scattered Clouds,0,2013-08-27 13:51:00
9:57 AM,59.0,48.2,67,30.31,10.0,ESE,3.5,-,N/A,,Clear,110,2013-08-27 15:57:00
10:56 AM,64.4,48.2,56,30.30,10.0,Calm,Calm,-,N/A,,Partly Cloudy,0,2013-08-27 16:56:00
11:55 AM,68.0,50.0,52,30.26,10.0,SE,3.5,-,N/A,,Mostly Cloudy,140,2013-08-27 17:55:00
12:51 PM,71.6,48.2,43,30.25,10.0,SSW,4.6,-,N/A,,Scattered Clouds,210,2013-08-27 18:51:00
1:54 PM,73.4,46.4,38,30.22,10.0,SSE,6.9,-,N/A,,Partly Cloudy,160,2013-08-27 19:54:00
2:56 PM,75.2,42.8,31,30.22,10.0,SSW,6.9,-,N/A,Thunderstorm,Thunderstorm,200,2013-08-27 20:56:00
3:51 PM,57.2,55.4,94,30.28,10.0,Calm,Calm,-,N/A,Thunderstorm,Overcast,0,2013-08-27 21:51:00
4:51 PM,60.8,55.4,82,30.25,10.0,Calm,Calm,-,N/A,,Mostly Cloudy,0,2013-08-27 22:51:00
5:54 PM,62.6,39.2,42,30.25,10.0,Calm,Calm,-,N/A,,Mostly Cloudy,0,2013-08-27 23:54:00
6:58 PM,60.8,55.4,82,30.26,10.0,Calm,Calm,-,N/A,,Mostly Cloudy,0,2013-08-28 00:58:00
7:54 PM,62.6,55.4,77,30.25,10.0,Calm,Calm,-,N/A,,Scattered Clouds,0,2013-08-28 01:54:00
8:52 PM,59.0,57.2,94,30.24,10.0,Calm,Calm,-,N/A,,Mostly Cloudy,0,2013-08-28 02:52:00
8:55 PM,59.0,57.2,94,30.24,10.0,North,3.5,-,0.01,,Mostly Cloudy,360,2013-08-28 02:55:00
9:15 PM,59.0,55.4,88,30.25,10.0,North,3.5,-,N/A,,Mostly Cloudy,350,2013-08-28 03:15:00
9:35 PM,57.2,55.4,94,30.25,10.0,West,4.6,-,N/A,,Overcast,260,2013-08-28 03:35:00
9:55 PM,57.2,55.4,94,30.25,10.0,Calm,Calm,-,N/A,,Mostly Cloudy,0,2013-08-28 03:55:00
10:15 PM,57.2,55.4,94,30.25,10.0,Calm,Calm,-,N/A,,Overcast,0,2013-08-28 04:15:00
10:35 PM,57.2,55.4,94,30.25,10.0,Calm,Calm,-,N/A,,Overcast,0,2013-08-28 04:35:00
10:55 PM,57.2,55.4,94,30.25,10.0,Calm,Calm,-,N/A,,Overcast,0,2013-08-28 04:55:00
11:15 PM,55.4,55.4,100,30.25,10.0,Calm,Calm,-,N/A,,Mostly Cloudy,0,2013-08-28 05:15:00
11:35 PM,55.4,53.6,94,30.25,10.0,Calm,Calm,-,N/A,,Mostly Cloudy,0,2013-08-28 05:35:00
11:55 PM,55.4,53.6,94,30.25,10.0,Calm,Calm,-,N/A,,Scattered Clouds,0,2013-08-28 05:55:00